Location: Nashville
(36.1660°N, 86.7840°W)
Time: 21:04:01
(UTC-05:00)

Tiros 1 - Pass Details

Date: 03 February 2022
Orbit: 629 x 663 km, 48.4° (Epoch: 27 May)

Event Time Altitude Azimuth Distance (km) Brightness Sun altitude
Rises 18:57:52 0° 248° (WSW) 2,970 11.9 -20.8°
Reaches altitude 10° 19:00:16 10° 254° (WSW) 2,065 10.9 -21.3°
Maximum altitude 19:04:54 50° 330° (NNW) 839 7.8 -22.3°
Enters shadow 19:06:19 37° 19° (NNE) 1,018 7.9 -22.5°
